Regional Weather Roundup
Issued by NWS State College, PA

Home | Current Version | Previous Version | Graphics & Text | Print | Product List | Glossary On
Versions: 1 2 3 4 5 6 7 8 9 10 11 12 13 14 15 16 17 18 19 20 21 22 23 24 25 26 27 28 29 30 31 32 33 34 35 36 37 38 39 40 41 42 43 44 45 46 47 48 49 50
000
ASUS41 KCTP 230703
RWRCTP

REGIONAL WEATHER ROUNDUP
NATIONAL WEATHER SERVICE STATE COLLEGE PA
200 AM EST THU FEB 23 2017

Note: "fair" indicates few or no clouds below 12,000 feet with no
significant weather and/or obstructions to visibility.

* = STATION THAT DOES NOT REPORT PRECIPITATION /E.G. RAIN...SNOW...ETC/
    THUNDER OR FOG.

PAZ002>004-007>009-013>016-020>023-029>032-230800-
WESTERN PENNSYLVANIA

CITY           SKY/WX    TMP DP  RH WIND       PRES   REMARKS
ERIE           CLOUDY    57  50  77 S15       29.75S
MEADVILLE      CLOUDY    54  49  83 S7        29.78S
FRANKLIN*      CLOUDY    54  48  82 SW12      29.81F
NEW CASTLE     PTSUNNY   55  51  86 VRB6      29.80F
BEAVER COUNTY  NOT AVBL
BUTLER*        CLOUDY    55  48  76 S10       29.83F
PITTSBURGH INT CLOUDY    56  52  86 S9        29.83F
PITTSBURGH     CLOUDY    56  49  77 SW9       29.84S
INDIANA*       CLOUDY    55  52  88 SW8       29.87R
LATROBE        CLOUDY    55  54  94 S9        29.86S
WASHINGTON CO* CLOUDY    55  50  82 S3        29.86F
$$

PAZ004>006-010>012-017>019-024>028-033>037-041-042-045-046-049>053-230800-
CENTRAL PENNSYLVANIA

CITY           SKY/WX    TMP DP  RH WIND       PRES   REMARKS
BRADFORD       MOCLDY    50  47  89 S5        29.80S
DUBOIS         CLOUDY    53  46  77 SW5       29.82S
CLEARFIELD       N/A    N/A N/A N/A MISG      29.83F
JOHNSTOWN      MOCLDY    52  49  89 SW8       29.84F
ALTOONA        CLEAR     50  43  77 CALM      29.85F
STATE COLLEGE  PTCLDY    44  39  83 CALM      29.85S
WILLIAMSPORT   CLOUDY    41  37  86 CALM      29.86F
SELINSGROVE    NOT AVBL
FT INDIANTOWN  CLEAR     37  37 100 CALM      29.87F
CAPITAL CITY   CLEAR     42  38  85 CALM      29.87
HARRISBURG     PTCLDY    43  41  93 E5        29.87F
YORK           PTCLDY    37  37 100 CALM      29.87F
$$

PAZ038>040-043-044-047-048-054-055-060>062-067>071-230800-
EASTERN PENNSYLVANIA

CITY           SKY/WX    TMP DP  RH WIND       PRES   REMARKS
SCRANTON       CLOUDY    44  39  82 E5        29.86
MOUNT POCONO   MOCLDY    42  38  85 NW5       29.87S
ALLENTOWN      NOT AVBL
QUAKERTOWN*    SUNNY     36  34  93 CALM      29.89F
READING        CLEAR     41  40  96 N3        29.88F
LANCASTER      NOT AVBL
COATESVILLE    PTSUNNY   46  46 100 CALM      29.90S
POTTSTOWN      CLEAR     39  37  92 CALM      29.90  FOG
BLUE BELL      CLEAR     37  37 100 CALM      29.89S
DOYLESTOWN     NOT AVBL
WILLOW GROVE   NOT AVBL
NORTH PHILA    NOT AVBL
PHILADELPHIA   CLOUDY    47  45  93 W3        29.91S FOG
$$




USA.gov is the U.S. government's official web portal to all federal, state and local government web resources and services.